Cyclone, PA

3:14 AM EST on February 06, 2016 (GMT -0500)
Bradford Regional

Weather History for KBFD - January, 2013

Change the Weather History Date:

Thursday, January 3, 2013

  Actual Average Record
Temperature  
Mean Temperature 21 °F 22 °F  
Max Temperature 27 °F 29 °F 56 °F (2000)
Min Temperature 15 °F 14 °F -11 °F (1979)
Degree Days  
Heating Degree Days 44 38  
Month to date heating degree days 114  
Since 1 July heating degree days 3170  
Cooling Degree Days 0 0  
Month to date cooling degree days 0  
Year to date cooling degree days 0  
Moisture  
Dew Point 14 °F    
Average Humidity 69    
Maximum Humidity 78    
Minimum Humidity 63    
Precipitation  
Precipitation 0.01 in 0.11 in 0.95 in (2005)
Month to date precipitation 0.35  
Year to date precipitation 0.35  
Sea Level Pressure  
Sea Level Pressure 30.05 in    
Wind  
Wind Speed 6 mph (WSW)    
Max Wind Speed 14 mph    
Max Gust Speed 23 mph    
Visibility 5 miles    
Events Rain , Snow    
T = Trace of Precipitation, MM = Missing Value Source: NWS Daily Summary

Daily Weather History Graph

Daily Weather History Graph

Search for Another Location

Airport or City:

Trip Planner

Search our weather history database for the weather conditions in past years. The results will help you decide how hot, cold, wet, or windy it might be!

Date:

Astronomy

Jan. 03, 2013 Rise Set
Actual Time 7:42 AM EST 4:56 PM EST
Civil Twilight 7:10 AM EST 5:27 PM EST
Nautical Twilight 6:35 AM EST 6:02 PM EST
Astronomical Twilight 6:02 AM EST 6:36 PM EST
Moon 11:36 PM EST (1/3) 10:46 AM EST (1/3)
Length of Visible Light 10h 17m
Length of Day
9h 14m
Waning Gibbous, 65% of the Moon is Illuminated
Jan 3
Waning Gibbous
Jan 4
Last Quarter
Jan 11
New
Jan 18
First Quarter
Jan 26
Full

Hourly Weather History & Observations

Time (EST) Temp. Windchill Dew Point Humidity Pressure Visibility Wind Dir Wind Speed Gust Speed Precip Events Conditions
12:53 AM 19.0 °F 11.1 °F 10.0 °F 68% 30.15 in 8.0 mi SW 5.8 mph - 0.00 in Snow Light Snow
1:23 AM 19.0 °F 12.3 °F 10.0 °F 68% 30.06 in 10.0 mi SW 4.6 mph - 0.00 in   Overcast
2:22 AM 19.0 °F - 9.0 °F 65% 30.07 in 10.0 mi Calm Calm - N/A   Overcast
2:53 AM 19.0 °F - 9.0 °F 65% 30.16 in 10.0 mi Calm Calm - N/A   Overcast
3:53 AM 19.0 °F 12.3 °F 9.0 °F 65% 30.14 in 10.0 mi SSW 4.6 mph - N/A   Overcast
4:53 AM 19.0 °F 13.9 °F 10.0 °F 68% 30.14 in 10.0 mi WSW 3.5 mph - N/A   Overcast
5:45 AM 19.0 °F 13.9 °F 10.0 °F 68% 30.05 in 10.0 mi SW 3.5 mph - N/A   Overcast
5:53 AM 18.0 °F - 9.0 °F 68% 30.15 in 10.0 mi Calm Calm - N/A   Overcast
6:11 AM 17.1 °F 11.7 °F 8.1 °F 68% 30.05 in 10.0 mi SW 3.5 mph - N/A   Scattered Clouds
6:53 AM 15.1 °F - 7.0 °F 70% 30.15 in 10.0 mi Calm Calm - N/A   Clear
7:45 AM 15.1 °F 9.4 °F 7.0 °F 70% 30.05 in 9.0 mi Variable 3.5 mph - N/A   Mostly Cloudy
7:53 AM 15.1 °F 9.4 °F 8.1 °F 74% 30.14 in 8.0 mi SW 3.5 mph - N/A   Overcast
8:12 AM 16.0 °F - 8.1 °F 71% 30.05 in 3.0 mi Calm Calm - 0.00 in Snow Light Snow
8:20 AM 16.0 °F 7.4 °F 8.1 °F 71% 30.05 in 1.8 mi SW 5.8 mph - 0.00 in Snow Light Snow
8:47 AM 15.8 °F 8.6 °F 8.6 °F 73% 30.04 in 3.0 mi SSW 4.6 mph - 0.00 in Snow Light Snow
8:53 AM 16.0 °F 7.4 °F 9.0 °F 74% 30.14 in 5.0 mi SSW 5.8 mph - 0.00 in   Haze
9:15 AM 17.1 °F 10.0 °F 9.0 °F 71% 30.05 in 4.0 mi SW 4.6 mph - N/A   Haze
9:53 AM 18.0 °F 11.1 °F 9.0 °F 68% 30.15 in 7.0 mi WSW 4.6 mph - N/A   Overcast
10:53 AM 19.0 °F 12.3 °F 10.0 °F 68% 30.13 in 9.0 mi Variable 4.6 mph - N/A   Overcast
11:53 AM 21.0 °F 11.4 °F 12.0 °F 68% 30.10 in 6.0 mi SW 8.1 mph 17.3 mph 0.00 in Snow Light Snow
12:06 PM 21.9 °F 11.7 °F 12.9 °F 68% 30.01 in 5.0 mi SSW 9.2 mph - 0.00 in   Haze
12:53 PM 23.0 °F 13.1 °F 14.0 °F 68% 30.06 in 8.0 mi SSW 9.2 mph - 0.00 in   Overcast
1:45 PM 25.0 °F 15.5 °F 14.0 °F 63% 29.96 in 10.0 mi SW 9.2 mph - 0.00 in   Overcast
1:53 PM 25.0 °F 19.3 °F 14.0 °F 63% 30.04 in 9.0 mi Variable 4.6 mph - 0.00 in   Overcast
2:00 PM 25.0 °F 15.5 °F 14.0 °F 63% 29.96 in 3.0 mi SW 9.2 mph - 0.00 in Snow Light Snow
2:09 PM 25.0 °F 17.1 °F 15.1 °F 66% 29.96 in 1.8 mi SW 6.9 mph - 0.00 in Snow Light Snow
2:30 PM 25.0 °F 14.8 °F 15.1 °F 66% 29.95 in 2.0 mi WSW 10.4 mph - 0.00 in Snow Light Snow
2:38 PM 25.0 °F 14.8 °F 16.0 °F 69% 29.95 in 0.8 mi WSW 10.4 mph 16.1 mph 0.00 in Snow Light Snow
2:53 PM 25.0 °F 17.1 °F 16.0 °F 69% 30.03 in 1.5 mi WSW 6.9 mph - 0.00 in Snow Light Snow
3:51 PM 26.6 °F 16.2 °F 15.8 °F 64% 29.95 in 2.5 mi WSW 11.5 mph 18.4 mph 0.00 in Snow Light Snow
3:53 PM 26.1 °F 17.6 °F 15.1 °F 63% 30.04 in 2.5 mi WSW 8.1 mph 18.4 mph 0.00 in Snow Light Snow
4:05 PM 25.0 °F 16.3 °F 15.1 °F 66% 29.95 in 3.0 mi WSW 8.1 mph - 0.00 in Snow Light Snow
4:53 PM 26.1 °F 17.6 °F 16.0 °F 66% 30.04 in 3.0 mi SW 8.1 mph - 0.00 in Snow Light Snow
5:53 PM 26.1 °F 17.6 °F 16.0 °F 66% 30.06 in 10.0 mi WSW 8.1 mph - 0.00 in   Overcast
6:53 PM 27.0 °F 19.5 °F 16.0 °F 63% 30.07 in 5.0 mi WSW 6.9 mph - 0.00 in Snow Light Snow
7:43 PM 27.0 °F 18.7 °F 17.1 °F 66% 29.99 in 2.5 mi West 8.1 mph - 0.00 in Snow Light Snow
7:53 PM 27.0 °F 18.0 °F 18.0 °F 69% 30.08 in 2.5 mi WSW 9.2 mph - 0.00 in Snow Light Snow
8:10 PM 27.0 °F 19.5 °F 18.0 °F 69% 29.99 in 3.0 mi West 6.9 mph - 0.00 in Snow Light Snow
8:17 PM 27.0 °F 18.0 °F 18.0 °F 69% 29.99 in 2.0 mi WSW 9.2 mph - 0.00 in Snow Light Snow
8:24 PM 27.0 °F 19.5 °F 18.0 °F 69% 29.99 in 1.8 mi West 6.9 mph - 0.00 in Snow Light Snow
8:43 PM 27.0 °F 19.5 °F 18.0 °F 69% 29.99 in 2.0 mi WSW 6.9 mph - 0.00 in Snow Light Snow
8:53 PM 27.0 °F 18.0 °F 18.0 °F 69% 30.08 in 3.0 mi West 9.2 mph - 0.00 in Snow Light Snow
9:05 PM 27.0 °F 18.7 °F 19.0 °F 72% 29.99 in 2.5 mi West 8.1 mph - 0.00 in Snow Light Snow
9:19 PM 27.0 °F 18.7 °F 19.0 °F 72% 29.99 in 4.0 mi WSW 8.1 mph 17.3 mph 0.01 in Snow Light Snow
9:53 PM 27.0 °F 17.3 °F 19.9 °F 75% 30.07 in 4.0 mi West 10.4 mph 23.0 mph 0.01 in   Overcast
10:03 PM 27.0 °F 15.6 °F 19.9 °F 75% 29.99 in 4.0 mi West 13.8 mph 19.6 mph 0.00 in Rain Light Freezing Rain
10:50 PM 26.6 °F 16.2 °F 19.4 °F 74% 30.00 in 3.0 mi West 11.5 mph 23.0 mph 0.00 in Snow Light Snow
10:53 PM 27.0 °F 18.0 °F 21.0 °F 78% 30.08 in 3.0 mi West 9.2 mph 23.0 mph 0.00 in Snow Light Snow
11:53 PM 27.0 °F 16.7 °F 19.9 °F 75% 30.07 in 4.0 mi West 11.5 mph 19.6 mph 0.00 in   Overcast